Location: Burera
(21.3780°N, 81.9534°E)
Time: 01:25:09
(UTC+00:00)

Cosmos 1339 Rocket - Pass Details

Date: 13 August 2020
Orbit: 941 x 1006 km, 82.9° (Epoch: 22 September)

Event Time Altitude Azimuth Distance (km) Brightness Sun altitude
Rises 13:51:05 0° 355° (N) 3,699 7.9 -11.3°
Reaches altitude 10° 13:53:38 10° 356° (N) 2,740 7.2 -11.8°
Maximum altitude 13:59:55 90° 66° (ENE) 976 4.5 -13.2°
Drops below altitude 10° 14:06:05 10° 177° (S) 2,686 6.6 -14.5°
Sets 14:08:33 0° 177° (S) 3,621 7.2 -15.1°
